Wind_Speed
26 28 27 27 27 27 27 27 27 29 30 31 32 33 33 35 36 36 35 34 31 27 26 26 24 23 22 21 20 22 22 26 24 22 22 15 14 12 13 12 12 12 13 14 16
29 29 29 29 30 30 31 31 31 31 32 33 34 33 35 36 36 37 37 38 36 33 30 29 30 28 26 23 22 24 25 25 24 24 23 21 16 15 15 17 17 16 15 16 18
33 32 31 32 32 34 36 34 33 33 33 34 34 34 35 35 35 37 38 39 39 38 36 32 32 32 30 29 26 25 26 27 25 26 25 23 20 18 18 18 18 18 17 17 17
30 34 34 35 35 35 37 37 38 37 37 37 36 37 36 36 37 36 38 40 41 41 38 35 33 32 33 33 31 29 27 27 25 27 26 24 22 21 19 19 19 18 19 19 18
27 29 31 35 36 37 38 39 39 39 39 39 40 38 38 40 40 38 37 37 38 41 42 40 39 37 35 38 35 34 30 29 26 28 29 27 24 25 23 21 19 21 23 20 17
28 28 27 28 30 31 35 37 36 36 38 39 39 41 40 41 42 41 41 40 39 39 42 43 43 42 41 40 40 38 34 32 31 29 32 31 28 24 26 25 23 23 25 23 20
34 32 31 30 30 29 29 32 34 31 33 33 35 36 38 40 41 41 42 42 41 41 40 42 43 44 44 43 43 42 40 36 35 32 33 34 33 28 28 29 24 24 27 27 27
39 39 38 35 32 31 31 30 30 29 28 28 28 30 33 37 36 37 40 42 43 42 41 41 42 39 43 47 45 44 44 43 40 35 31 33 40 34 30 30 31 26 25 27 28
40 42 42 42 40 38 36 34 33 32 32 30 29 28 30 36 35 34 37 39 39 40 40 41 40 40 41 45 48 49 44 45 42 39 32 33 36 43 36 33 37 32 30 33 32
42 43 45 44 44 45 45 40 38 38 35 34 32 33 35 37 38 38 37 37 35 36 38 41 40 42 45 41 42 48 48 46 45 39 35 35 34 41 44 38 43 41 37 36 36
46 48 46 46 48 46 47 45 43 41 41 40 37 36 37 42 43 44 43 42 40 39 38 39 40 42 43 42 41 43 47 46 48 41 34 37 32 39 45 49 49 47 42 42 42
51 51 49 47 46 48 51 50 48 47 41 40 41 41 44 43 45 49 49 45 45 43 41 38 38 43 42 43 41 42 43 46 44 43 37 39 33 37 42 54 52 51 48 48 48
57 55 51 53 51 50 52 51 50 49 40 45 49 47 50 50 46 51 51 47 45 44 43 37 39 40 40 40 39 38 41 42 42 45 43 40 33 36 40 46 58 55 53 54 54
58 64 63 62 55 54 52 53 51 51 37 32 44 43 48 51 46 51 52 50 47 48 48 46 48 46 44 43 41 36 41 39 39 39 38 41 25 32 33 42 53 55 57 58 58
60 61 62 65 63 61 61 57 55 56 36 36 39 47 51 53 53 54 56 55 54 56 56 53 51 52 51 50 48 42 44 42 39 40 34 37 30 28 35 44 50 51 57 60 63
67 65 64 70 69 68 65 61 61 54 44 40 42 49 53 56 54 54 56 56 56 55 53 53 50 51 52 54 54 51 51 50 48 47 38 45 43 31 44 47 51 54 58 62 62
71 69 75 69 77 79 74 73 69 50 48 48 52 55 56 57 59 62 60 58 57 59 56 59 58 58 58 60 58 57 56 55 52 53 44 45 39 34 42 42 45 55 61 65 63
81 79 75 82 82 84 77 75 67 65 62 60 58 60 60 61 63 64 62 59 61 65 64 65 62 68 63 63 60 57 62 65 63 57 43 43 35 39 45 49 52 60 65 71 71
87 90 86 85 94 87 93 90 66 68 78 70 71 65 63 67 70 68 67 65 68 72 75 79 65 70 70 67 69 64 63 69 73 65 61 52 45 45 48 50 59 64 66 70 73
96 91 79 89 96 101 96 80 86 73 81 84 81 71 67 71 74 76 74 68 71 73 79 80 83 78 73 72 69 73 73 72 73 74 69 46 44 47 51 54 68 71 72 77 77
102 105 94 101 105 106 106 86 91 94 86 90 84 85 76 81 82 78 72 75 78 82 86 86 90 86 78 71 72 74 73 74 81 81 83 74 49 53 54 70 73 76 80 82 81
111 112 107 103 113 111 102 97 99 94 97 100 88 89 93 88 87 91 79 76 79 86 89 93 98 99 88 84 83 84 83 83 85 80 81 81 64 55 73 71 80 82 84 81 83
128 135 122 114 112 123 112 113 116 103 108 97 101 95 91 101 98 91 93 88 90 96 92 96 105 109 94 87 85 89 89 88 91 95 81 95 65 73 77 85 91 86 82 85 95
138 143 133 131 132 129 125 121 113 118 112 113 109 102 105 100 104 109 94 101 99 102 106 105 109 104 107 94 99 102 93 89 87 90 90 91 95 73 74 96 95 93 94 100 102
147 148 144 147 142 140 138 137 127 124 124 126 123 115 106 112 106 110 101 107 112 107 111 112 115 115 113 109 104 109 109 98 94 94 97 93 100 83 88 94 95 100 102 104 108
165 158 156 158 157 160 154 145 141 129 127 131 132 125 124 118 111 116 111 119 118 116 117 121 122 118 118 116 113 113 117 100 107 100 103 107 103 96 100 105 107 106 116 112 108
158 159 164 154 146 150 153 158 154 150 143 136 136 134 126 122 119 126 127 124 125 129 128 129 126 127 128 120 124 127 111 119 107 103 111 116 114 105 109 114 118 119 119 114 113
Wind_Direction
264 264 263 264 269 269 273 274 275 279 282 284 289 288 288 286 283 283 282 285 287 288 294 297 300 305 308 315 322 323 329 332 341 353 3 347 342 309 292 296 309 313 312 309 304
261 261 259 255 259 259 266 268 270 271 275 278 281 286 288 288 288 288 283 282 282 283 283 286 290 295 301 305 315 318 324 324 328 339 351 356 340 337 319 294 299 304 303 300 294
271 270 263 254 253 256 258 262 268 271 275 277 279 283 284 287 291 288 287 287 284 281 280 280 285 290 294 299 304 308 315 318 321 326 334 347 344 340 332 322 315 314 312 307 303
269 269 270 265 262 258 258 261 266 268 272 275 279 281 282 288 290 290 289 288 287 288 285 274 273 277 283 290 292 298 304 310 314 319 322 326 330 332 333 327 317 313 315 309 304
275 269 270 272 265 266 267 268 269 275 277 273 278 278 280 284 284 286 289 289 288 286 286 284 275 271 272 279 281 286 296 300 304 310 315 315 315 314 322 322 305 301 302 302 292
273 272 272 273 276 276 276 277 279 280 280 279 278 281 282 284 284 284 288 289 289 288 286 283 280 278 276 273 276 278 282 293 296 301 307 307 307 303 307 314 312 299 297 297 283
271 268 270 271 275 275 276 276 278 283 283 285 287 286 287 285 282 282 283 284 284 286 287 285 281 276 272 272 273 272 275 280 288 292 300 303 299 302 300 303 309 305 296 295 293
267 270 270 271 271 272 273 273 274 277 282 286 293 293 290 289 285 284 285 285 286 285 283 281 280 278 276 269 268 271 273 277 280 283 293 300 287 303 295 295 297 304 300 292 292
269 268 267 268 272 272 271 271 271 272 277 283 286 291 291 287 290 288 285 286 287 286 283 280 277 278 279 273 272 270 269 274 274 277 284 293 290 294 295 292 291 297 299 300 301
266 269 269 269 270 270 272 271 272 272 274 279 285 285 285 287 288 288 286 288 291 294 293 289 286 281 275 277 275 270 269 270 271 273 277 286 291 289 292 290 285 292 300 300 297
275 267 273 272 273 272 271 269 268 269 275 274 274 281 283 283 284 282 284 287 288 291 295 297 293 281 279 275 274 273 268 268 269 271 272 282 287 283 288 287 284 289 298 298 296
276 274 271 274 276 274 274 273 270 272 275 275 276 277 280 279 280 281 281 283 285 288 290 292 298 288 285 283 281 279 273 268 269 270 272 279 286 281 281 283 283 288 296 298 298
275 274 276 275 278 277 276 273 274 272 268 275 276 275 279 278 275 279 278 280 282 286 289 293 288 288 287 288 285 284 278 273 270 272 275 278 283 285 279 280 286 291 295 297 295
269 275 274 274 276 274 280 275 274 273 266 275 277 280 278 274 275 274 277 278 281 282 286 290 288 288 288 286 285 285 283 280 277 276 277 285 277 282 275 277 280 289 296 295 295
265 271 274 273 271 274 277 279 277 273 266 269 271 276 277 273 271 273 274 278 282 283 284 285 284 287 287 285 284 282 283 283 281 280 280 283 284 272 271 271 281 285 289 290 289
264 264 267 271 273 270 271 275 277 275 271 264 260 263 268 271 271 272 275 278 279 281 281 282 282 284 285 284 285 281 279 279 278 279 278 278 281 284 277 280 285 289 285 284 285
264 268 267 267 272 270 271 270 277 287 278 266 260 256 260 262 268 270 273 275 279 281 282 282 282 282 283 282 284 286 284 281 280 279 280 278 285 284 284 288 284 285 285 285 285
261 263 266 266 269 269 268 268 274 276 283 274 265 259 258 261 264 269 274 280 283 283 283 283 280 282 282 283 284 284 288 288 282 282 278 280 283 285 287 288 286 282 282 284 286
264 258 272 260 267 268 266 265 281 269 273 273 270 268 262 263 265 266 271 278 281 282 283 280 283 279 279 280 283 285 286 284 286 284 276 273 279 283 285 286 284 279 281 284 286
265 268 257 262 266 266 264 275 267 274 264 272 269 266 268 270 273 273 272 276 278 280 281 281 280 278 278 279 283 282 281 284 285 285 284 277 280 284 286 288 281 282 283 283 285
265 272 267 270 266 266 265 272 264 269 268 269 265 265 266 267 270 268 272 274 276 276 276 281 282 280 279 281 282 281 283 284 284 285 285 287 286 297 287 276 279 281 282 285 286
266 268 269 270 271 269 271 268 269 262 274 265 266 262 265 269 264 268 270 271 275 275 275 277 280 281 281 280 281 284 282 282 281 283 284 291 287 283 281 291 291 289 285 286 291
266 270 265 267 265 273 268 272 273 263 274 271 268 264 266 271 267 271 268 269 272 273 275 275 279 278 283 282 284 279 283 280 281 281 285 285 291 281 284 286 288 288 292 296 292
262 264 265 265 270 270 269 273 270 274 274 278 273 269 270 272 272 276 266 265 270 267 273 270 276 279 282 287 280 281 282 285 283 284 287 286 290 290 288 284 287 295 295 293 293
260 262 263 265 267 269 269 269 268 271 276 276 276 274 271 268 270 272 271 266 271 271 271 270 277 277 279 285 281 283 284 286 292 288 287 290 288 296 288 285 292 291 292 293 301
260 263 264 264 267 267 266 265 268 267 270 272 272 274 273 270 270 268 272 264 266 274 271 274 276 277 279 279 282 278 278 290 287 290 287 291 291 291 295 294 292 297 295 298 296
260 263 267 265 264 264 264 264 265 265 263 264 269 269 268 272 270 271 271 271 268 274 276 276 278 279 282 280 278 277 288 285 292 290 289 288 291 297 292 292 294 296 293 293 293
Height
10846 10847 10847 10848 10848 10848 10847 10847 10847 10847 10847 10847 10846 10844 10844 10843 10843 10843 10844 10843 10844 10844 10843 10842 10840 10839 10838 10837 10835 10832 10830 10828 10825 10822 10819 10816 10812 10809 10809 10807 10805 10803 10801 10799 10797
10840 10840 10840 10841 10842 10842 10842 10842 10842 10842 10841 10840 10839 10838 10836 10836 10835 10835 10835 10835 10836 10836 10836 10836 10835 10834 10833 10832 10831 10828 10825 10823 10820 10818 10815 10812 10809 10806 10804 10803 10801 10799 10797 10795 10793
10835 10834 10834 10833 10834 10835 10836 10835 10835 10836 10836 10835 10834 10833 10832 10830 10829 10828 10827 10826 10826 10828 10828 10828 10827 10826 10825 10825 10824 10823 10820 10817 10814 10812 10810 10808 10804 10802 10800 10798 10796 10794 10792 10790 10788
10828 10829 10829 10828 10828 10828 10829 10830 10830 10830 10830 10829 10828 10827 10825 10824 10823 10822 10820 10819 10818 10817 10818 10820 10820 10820 10819 10818 10817 10816 10815 10813 10809 10806 10804 10803 10800 10799 10796 10793 10791 10789 10787 10785 10784
10823 10822 10822 10822 10822 10822 10823 10824 10824 10824 10824 10822 10822 10820 10819 10817 10815 10815 10813 10812 10811 10810 10809 10809 10810 10811 10811 10809 10809 10809 10807 10805 10804 10800 10797 10796 10795 10791 10791 10789 10786 10783 10782 10780 10778
10818 10817 10816 10816 10817 10817 10816 10816 10816 10817 10816 10816 10814 10814 10812 10811 10808 10807 10806 10804 10803 10802 10800 10800 10799 10800 10801 10800 10800 10800 10800 10798 10796 10794 10791 10788 10788 10786 10783 10781 10779 10776 10774 10774 10773
10810 10810 10810 10809 10810 10811 10810 10810 10808 10809 10808 10808 10807 10806 10804 10801 10800 10798 10797 10795 10794 10793 10792 10791 10789 10788 10788 10789 10789 10790 10790 10791 10789 10788 10785 10779 10778 10780 10775 10771 10772 10770 10768 10766 10765
10801 10802 10803 10803 10804 10804 10804 10804 10802 10802 10801 10800 10800 10799 10796 10793 10791 10789 10788 10786 10785 10784 10782 10781 10779 10778 10777 10776 10777 10778 10779 10781 10781 10780 10780 10775 10760 10770 10769 10765 10762 10762 10761 10759 10758
10793 10793 10793 10794 10796 10796 10796 10797 10797 10795 10795 10794 10794 10793 10789 10784 10783 10782 10779 10777 10776 10774 10772 10771 10770 10769 10768 10765 10768 10766 10769 10768 10770 10771 10773 10770 10760 10751 10757 10757 10752 10753 10753 10751 10749
10782 10783 10783 10784 10785 10786 10787 10789 10790 10789 10789 10787 10787 10785 10782 10777 10775 10773 10771 10769 10768 10766 10764 10762 10761 10759 10755 10757 10757 10756 10757 10757 10756 10763 10764 10763 10759 10745 10742 10747 10741 10740 10741 10741 10739
10773 10772 10773 10774 10774 10775 10774 10777 10779 10780 10780 10780 10779 10776 10773 10769 10766 10762 10761 10761 10759 10758 10756 10754 10752 10746 10745 10745 10746 10746 10746 10747 10744 10751 10756 10751 10753 10743 10733 10729 10728 10726 10729 10728 10727
10762 10761 10761 10762 10763 10764 10761 10763 10767 10770 10774 10772 10769 10767 10763 10759 10758 10751 10749 10751 10749 10749 10746 10746 10743 10735 10735 10735 10737 10736 10737 10735 10738 10739 10745 10743 10744 10737 10730 10717 10715 10715 10716 10715 10714
10750 10750 10749 10748 10749 10751 10749 10750 10752 10755 10763 10763 10758 10759 10754 10749 10748 10741 10737 10740 10739 10739 10736 10738 10733 10729 10727 10727 10727 10728 10726 10727 10730 10729 10732 10736 10736 10730 10723 10716 10699 10701 10702 10700 10698
10738 10736 10736 10734 10737 10735 10736 10737 10738 10740 10753 10758 10745 10746 10741 10736 10741 10728 10726 10727 10730 10728 10725 10729 10722 10720 10719 10717 10717 10720 10715 10717 10719 10720 10722 10719 10733 10723 10717 10707 10697 10693 10689 10682 10679
10723 10723 10720 10717 10722 10720 10721 10723 10725 10726 10742 10744 10742 10732 10724 10721 10722 10720 10715 10715 10717 10715 10713 10715 10712 10709 10708 10705 10706 10711 10706 10706 10709 10709 10716 10709 10719 10715 10708 10699 10687 10689 10679 10669 10662
10706 10707 10705 10701 10703 10703 10703 10707 10711 10716 10730 10728 10727 10721 10715 10707 10705 10705 10702 10702 10701 10700 10701 10699 10700 10697 10696 10693 10694 10697 10694 10694 10697 10697 10708 10699 10703 10711 10693 10692 10683 10669 10667 10658 10654
10688 10690 10689 10683 10681 10682 10684 10689 10697 10710 10711 10712 10705 10700 10699 10698 10693 10687 10687 10690 10687 10682 10686 10683 10684 10682 10680 10678 10681 10679 10678 10677 10683 10680 10692 10689 10694 10692 10680 10678 10670 10657 10648 10642 10643
10666 10669 10670 10667 10655 10658 10662 10668 10691 10701 10692 10688 10685 10683 10686 10684 10680 10678 10678 10680 10673 10667 10666 10665 10672 10662 10668 10663 10665 10668 10660 10654 10654 10661 10677 10674 10684 10682 10672 10664 10653 10641 10635 10625 10623
10640 10647 10650 10644 10632 10633 10634 10649 10684 10678 10672 10665 10660 10667 10671 10668 10661 10662 10666 10670 10659 10651 10644 10635 10655 10648 10647 10651 10646 10653 10649 10638 10629 10644 10650 10666 10671 10667 10657 10649 10635 10624 10617 10611 10605
10608 10613 10628 10620 10612 10602 10600 10644 10652 10650 10647 10642 10642 10645 10651 10649 10644 10642 10648 10658 10646 10637 10621 10623 10617 10629 10634 10635 10638 10626 10628 10626 10616 10613 10617 10653 10654 10648 10641 10628 10608 10605 10605 10594 10592
10579 10574 10602 10600 10581 10572 10581 10619 10621 10625 10621 10617 10622 10625 10630 10625 10623 10622 10638 10637 10628 10617 10605 10603 10596 10605 10611 10623 10616 10612 10612 10607 10592 10597 10588 10606 10643 10634 10621 10601 10597 10591 10581 10575 10574
10555 10549 10559 10563 10552 10548 10567 10585 10593 10602 10594 10591 10592 10601 10602 10601 10602 10604 10614 10612 10604 10597 10586 10580 10573 10572 10593 10601 10600 10594 10592 10587 10579 10582 10574 10574 10608 10621 10588 10584 10571 10566 10559 10558 10555
10528 10513 10526 10528 10526 10530 10545 10546 10547 10563 10569 10567 10565 10572 10574 10577 10574 10583 10587 10591 10580 10576 10565 10556 10548 10543 10566 10580 10579 10568 10570 10569 10562 10560 10568 10535 10575 10575 10574 10558 10546 10544 10543 10541 10528
10499 10489 10494 10491 10506 10505 10513 10519 10517 10525 10525 10535 10535 10539 10545 10549 10547 10547 10561 10561 10553 10545 10540 10528 10521 10529 10532 10553 10544 10539 10544 10551 10544 10536 10538 10528 10520 10559 10558 10520 10520 10519 10514 10509 10498
10461 10460 10468 10458 10476 10483 10479 10490 10490 10496 10500 10497 10501 10510 10515 10511 10513 10515 10534 10522 10516 10517 10515 10503 10497 10503 10505 10514 10515 10506 10505 10525 10530 10518 10500 10509 10491 10526 10519 10502 10502 10492 10485 10479 10479
10417 10426 10431 10432 10439 10444 10444 10458 10465 10478 10472 10471 10467 10479 10475 10475 10481 10490 10485 10488 10481 10487 10484 10476 10474 10471 10472 10483 10477 10472 10471 10509 10495 10496 10478 10470 10471 10492 10480 10476 10468 10477 10446 10451 10449
10378 10379 10377 10388 10397 10394 10410 10420 10434 10447 10443 10450 10444 10436 10439 10457 10451 10445 10446 10446 10445 10449 10451 10446 10447 10442 10439 10450 10437 10421 10476 10454 10472 10470 10453 10438 10440 10460 10450 10438 10442 10446 10423 10418 10413